GFSWCAN_2pvu_pres_108.txt.gz
Presure
276 274 273 268 266 270 281 279 286 291 302 319 328 308 307 319 317 335 352 383 416 388 357 342 336 336 333 338 339 338 334 328 325 347 307 317 317 319 302 245 308 336 359 389 430 341 341 373 327 343 332 332 311 272
270 270 269 275 276 280 290 293 291 295 317 337 310 301 313 310 312 339 349 343 338 336 337 336 342 340 331 336 326 324 310 314 312 346 342 329 320 310 318 310 310 310 321 335 378 388 373 358 376 334 329 313 318 284
281 280 278 280 282 287 289 283 297 313 321 321 301 306 307 315 331 354 322 321 329 330 340 336 339 327 315 333 394 374 342 355 339 330 335 321 326 311 312 313 303 312 303 303 297 312 326 331 333 325 332 176 192 296
292 291 292 292 294 303 305 299 306 338 336 307 299 304 309 320 349 317 329 324 325 323 337 315 312 308 313 332 347 281 342 354 348 345 338 321 305 313 309 305 297 304 297 302 295 295 299 302 306 297 321 338 321 288
316 308 307 310 315 321 319 317 344 358 317 301 300 298 301 333 323 310 309 307 321 323 315 309 304 350 358 351 313 338 311 313 307 343 309 296 301 300 298 311 294 295 295 294 279 291 297 300 291 285 318 335 320 294
391 366 350 340 335 330 337 377 342 326 302 295 292 300 317 297 307 304 314 315 306 330 337 341 349 350 326 288 295 296 286 288 281 283 277 285 289 280 276 278 277 308 303 291 281 285 321 301 319 325 323 329 313 296
420 394 379 390 401 388 364 334 337 302 292 292 298 296 316 295 305 309 312 317 327 338 359 323 312 311 294 289 278 283 284 272 270 268 270 272 288 280 281 290 297 293 310 298 294 298 299 306 297 303 174 308 298 178
410 399 384 370 359 344 331 333 304 296 290 291 301 296 287 297 303 295 302 310 349 327 321 311 298 296 288 270 271 268 268 277 279 280 287 281 282 284 297 294 289 290 291 288 289 288 288 295 288 296 295 286 278 278
362 354 345 339 332 339 328 302 298 291 290 290 286 298 284 300 295 285 314 339 334 311 310 308 304 278 274 265 264 275 274 283 290 282 287 280 278 283 282 283 282 284 277 280 283 286 289 301 284 305 289 274 269 270
338 336 337 343 335 318 305 300 291 291 281 284 280 288 299 305 282 291 335 312 318 292 285 296 288 301 274 268 264 285 277 280 286 281 278 276 277 282 286 283 282 277 273 274 270 272 278 287 278 286 279 272 273 272
331 329 326 318 312 302 303 293 291 285 284 276 225 290 278 284 283 274 285 307 278 305 282 270 257 255 263 269 264 149 259 262 258 260 264 268 274 269 275 275 274 272 271 242 227 245 275 280 275 276 280 292 293 307
310 307 305 303 300 298 298 293 287 286 279 268 275 288 272 289 276 266 274 285 302 286 271 276 267 259 263 264 267 271 273 273 275 282 273 273 270 257 266 267 271 262 267 270 269 270 272 274 276 272 274 278 281 284
302 300 301 300 299 299 295 292 291 288 280 263 270 287 282 289 273 262 259 260 264 264 270 279 275 269 274 272 268 268 269 268 260 261 264 238 257 268 270 273 278 278 276 277 277 274 276 271 268 271 276 274 277 279
292 292 293 294 296 294 293 295 281 276 275 269 268 279 307 291 180 119 264 264 263 255 254 256 253 255 259 259 258 255 258 256 142 255 255 246 147 258 261 234 261 263 263 269 272 275 281 282 279 279 272 272 272 280
379 374 353 352 348 348 328 328 318 266 267 276 269 274 299 282 265 268 261 260 259 258 256 255 253 253 251 252 250 251 251 253 255 250 226 256 259 259 176 180 263 157 253 268 268 270 273 273 267 283 282 278 275 269
389 419 379 357 342 340 337 342 348 348 334 317 256 257 280 299 286 270 275 241 204 263 260 263 264 264 259 252 251 255 214 130 189 251 207 188 189 235 210 168 215 146 184 273 260 271 270 273 277 259 282 285 277 274
366 378 363 355 365 365 362 336 348 338 329 332 284 254 264 303 304 297 285 275 266 274 265 256 253 250 261 268 253 266 225 268 270 128 124 126 362 366 133 151 355 338 344 345 178 334 136 274 276 285 262 267 274 287
323 336 354 354 350 347 345 349 335 319 323 321 300 267 254 257 252 255 251 249 254 258 266 269 275 272 268 271 274 285 207 365 384 381 365 363 336 330 207 314 332 329 331 331 332 331 332 341 349 352 275 292 261 282
313 314 323 328 337 343 343 331 317 315 317 320 305 290 243 265 260 267 266 262 268 276 269 269 276 282 301 340 387 366 311 213 301 297 298 300 300 260 300 301 303 310 319 318 317 319 320 327 283 338 175 338 349 362
313 317 320 321 322 325 331 333 328 320 320 320 313 302 286 280 274 273 272 272 272 284 297 356 380 335 254 297 292 295 302 307 310 309 311 281 318 324 323 314 304 304 305 307 307 305 304 324 332 328 258 315 236 251
318 331 325 315 316 323 325 328 330 328 326 322 319 317 300 295 295 296 307 377 356 303 290 288 281 284 289 290 286 282 280 281 279 280 279 279 284 287 343 352 357 361 341 312 310 305 315 313 318 328 332 342 340 335
288 294 298 305 315 324 331 330 334 334 337 339 343 349 353 351 301 290 286 281 278 272 278 287 293 290 279 271 272 267 270 272 272 271 266 264 275 280 284 294 345 375 367 374 318 311 312 312 319 326 330 331 331 306
275 274 276 277 282 285 281 286 283 282 282 282 281 279 277 276 279 279 278 283 285 286 285 284 283 275 265 266 267 272 263 260 251 267 263 263 270 273 274 275 286 294 302 322 332 323 326 332 338 343 353 332 328 327
257 265 266 268 263 268 271 271 269 275 271 269 270 269 269 274 272 273 277 276 268 269 272 267 263 264 266 271 260 260 261 261 261 261 258 257 267 263 263 274 274 275 278 281 288 289 293 304 325 330 303 354 300 297
269 266 268 269 264 263 265 264 265 270 263 267 269 269 275 249 259 260 253 262 268 264 250 256 255 253 265 269 263 259 250 263 267 265 261 262 270 262 260 265 263 264 269 271 272 274 277 278 283 287 290 290 290 290
259 264 269 272 268 271 268 263 266 258 255 258 258 256 256 261 268 264 255 256 259 252 250 258 270 257 250 250 247 250 260 265 266 260 267 269 273 272 270 273 278 268 261 265 266 268 270 271 270 272 274 276 277 277
271 279 291 293 268 274 269 271 266 265 263 261 264 266 261 261 260 263 262 259 263 263 262 267 252 254 252 251 254 261 262 262 263 267 261 258 258 257 262 265 263 263 261 262 266 256 253 256 263 268 267 269 271 271
276 277 277 280 287 292 302 302 273 269 270 269 266 263 268 269 271 271 272 270 268 272 271 266 266 272 273 276 277 277 278 279 280 280 279 279 279 280 279 276 276 278 279 278 277 275 269 266 269 276 276 272 269 271
266 268 263 262 265 267 268 271 273 274 274 277 276 276 275 274 278 280 279 282 282 281 283 281 281 282 284 285 282 282 277 265 262 262 260 261 261 262 262 262 259 259 259 259 261 259 256 259 264 264 263 263 264 264
255 253 252 255 254 255 256 254 254 251 249 251 253 256 257 257 257 255 255 252 251 253 254 254 256 255 256 257 259 257 260 259 260 262 261 261 263 266 267 266 266 268 268 269 270 270 269 268 268 267 267 269 271 272
251 247 245 244 245 247 249 258 258 258 259 258 259 257 259 261 263 265 266 270 272 273 277 278 280 283 285 288 290 289 290 291 294 294 297 298 299 298 298 297 296 295 294 294 294 293 293 294 294 295 295 296 296 299
257 255 257 258 258 259 260 261 268 269 269 272 276 278 278 280 280 282 285 288 295 305 319 377 380 382 387 386 392 397 408 412 417 419 418 417 415 408 401 397 335 325 322 321 322 322 322 326 332 383 384 386 385 384
261 259 261 263 266 267 269 269 271 273 274 279 282 283 291 305 334 369 366 362 355 351 349 347 343 336 349 348 380 377 376 378 382 388 395 400 405 410 412 427 427 415 412 407 396 390 387 384 384 438 440 439 439 440

GFSWCAN_2pvu_pres_111.txt.gz
Presure
282 288 286 282 281 276 269 267 270 272 268 267 274 281 289 316 323 308 319 317 348 418 437 415 387 380 379 382 344 337 327 327 336 337 334 327 330 325 311 304 311 313 334 354 364 316 321 328 322 317 319 331 352 330
292 291 287 276 268 266 266 270 269 267 268 275 256 278 293 337 314 310 308 342 330 344 360 348 347 342 336 337 334 334 338 336 335 331 324 310 320 312 304 306 300 316 322 389 421 337 349 333 314 313 324 337 331 316
276 270 269 271 270 269 270 267 267 270 277 281 283 297 310 321 308 304 322 336 322 329 343 335 328 331 334 337 334 335 325 327 329 318 302 305 301 300 292 304 302 307 304 315 383 387 347 346 336 323 325 317 336 304
279 278 278 277 272 272 273 277 279 281 283 238 287 307 339 308 304 303 335 319 330 323 345 333 337 340 359 374 362 359 361 351 273 346 317 297 302 298 305 287 293 304 298 306 310 317 322 345 340 325 318 344 354 315
308 301 296 292 289 286 285 283 283 286 290 283 311 359 324 299 299 317 319 318 317 322 332 308 310 300 309 356 338 331 337 307 339 324 306 297 298 297 309 299 304 300 305 296 300 305 302 304 314 328 332 321 333 357
393 335 318 310 306 304 302 300 296 291 283 310 332 333 303 298 296 326 313 319 320 323 310 298 302 359 358 322 324 276 329 335 337 316 313 310 299 298 312 308 312 301 295 306 303 288 291 310 305 308 310 302 343 293
475 439 392 361 332 322 317 314 306 307 314 333 356 313 300 291 293 294 308 315 308 320 343 354 344 328 316 284 273 304 289 331 329 326 303 293 292 283 301 294 309 302 296 279 270 297 296 300 304 306 294 289 319 343
463 458 432 401 380 362 351 335 341 352 351 361 317 294 287 294 291 304 308 305 310 335 327 328 319 307 304 276 293 290 287 279 282 283 273 274 275 285 280 281 299 289 279 284 279 277 299 312 308 300 313 310 312 316
444 441 426 408 391 390 376 364 386 366 345 317 296 292 290 290 298 296 297 308 319 388 331 322 314 303 295 287 284 294 271 269 262 265 265 291 268 282 284 302 280 283 284 282 284 285 285 290 291 297 291 296 297 299
436 416 408 398 394 389 381 357 348 330 315 301 296 286 282 293 295 282 292 311 352 313 312 313 302 296 290 282 271 271 276 279 279 275 285 281 288 282 281 285 282 281 281 279 283 285 281 294 284 289 285 286 287 285
384 376 368 361 358 346 338 340 321 311 303 290 279 282 293 296 295 294 309 333 306 317 312 303 292 269 266 263 280 277 273 273 285 272 280 274 279 280 275 273 274 278 274 273 274 277 283 282 280 285 285 289 284 276
349 344 341 338 334 346 328 315 306 297 284 274 279 289 286 298 290 276 322 334 315 308 297 287 262 284 262 269 270 274 276 275 273 275 269 268 271 273 280 270 274 276 272 271 266 192 276 278 273 273 276 285 277 272
337 339 332 344 329 321 310 302 300 293 275 261 280 293 289 289 277 278 287 304 300 275 288 281 256 278 254 256 259 258 259 251 251 261 265 277 271 273 272 275 276 270 271 271 270 273 276 278 278 279 279 280 283 280
327 327 324 318 313 305 301 300 294 289 281 281 278 285 268 277 271 267 287 295 290 277 269 276 266 258 257 264 265 269 270 269 273 271 259 266 255 264 267 265 268 268 269 272 279 280 279 272 274 275 272 271 279 280
314 312 309 308 305 301 302 300 295 287 284 275 272 276 292 277 144 282 274 288 277 277 280 280 273 266 268 271 263 261 259 209 168 258 123 186 263 263 262 262 264 269 270 270 273 276 274 268 278 283 278 274 276 272
308 314 308 303 299 300 302 299 292 294 285 266 259 268 294 257 257 281 281 268 263 260 258 256 259 256 227 259 251 250 250 198 257 258 211 185 264 199 118 209 269 243 184 201 277 273 276 279 283 284 281 282 283 288
377 312 300 292 296 306 302 301 297 281 276 270 246 267 283 294 280 168 273 268 267 253 262 261 260 257 258 255 254 255 250 253 256 211 116 207 260 117 257 143 258 272 149 158 170 276 268 276 262 273 147 280 283 287
377 365 346 333 323 313 297 289 282 269 263 270 276 267 273 304 291 218 273 273 267 257 259 260 264 256 256 256 249 255 255 241 258 258 151 242 122 168 341 204 150 344 347 346 346 347 346 350 353 341 284 296 268 305
360 371 362 345 335 338 340 341 347 349 340 327 267 261 253 280 309 292 285 280 275 267 259 259 259 264 255 257 255 255 266 309 386 327 312 307 306 309 309 308 306 306 307 309 315 320 324 325 324 327 331 334 335 345
327 334 352 366 372 362 337 343 336 330 326 325 335 306 253 249 247 265 298 295 289 281 246 242 265 274 276 281 219 393 337 306 296 306 285 291 296 300 311 324 332 341 344 344 327 312 311 316 315 311 324 334 327 332
332 324 327 330 333 335 333 330 325 325 327 331 334 317 260 255 250 251 255 257 255 254 270 277 318 350 324 307 298 294 300 311 284 283 283 284 287 285 286 253 292 316 330 356 370 366 345 314 306 316 311 307 320 326
330 325 324 330 330 325 323 323 320 322 325 330 328 323 292 276 273 269 272 283 313 370 328 307 300 294 287 288 299 284 282 283 273 262 272 273 266 262 265 265 272 280 292 313 349 368 372 318 317 317 315 312 314 325
292 302 311 323 330 337 336 332 335 334 336 339 342 345 355 366 347 329 312 303 296 290 283 278 284 288 296 286 275 272 262 268 269 263 258 266 265 263 258 252 257 259 261 279 273 294 299 320 322 330 336 347 349 345
274 275 272 274 283 291 294 294 296 296 296 295 295 294 290 284 283 279 279 281 286 288 288 289 287 284 269 261 259 264 269 263 261 254 256 261 260 258 260 269 264 272 268 266 271 275 280 286 289 289 287 284 278 299
260 266 268 262 260 268 271 267 271 269 265 267 272 271 272 276 276 276 276 278 272 276 275 271 263 261 260 268 270 268 262 259 250 258 260 265 266 266 265 264 265 255 257 263 264 264 270 270 272 277 278 280 282 282
272 274 270 266 267 263 266 271 264 263 267 269 270 272 260 254 262 257 254 257 260 267 263 258 252 257 259 255 255 252 251 254 249 254 263 268 271 271 270 278 274 275 275 271 270 271 263 262 264 266 269 269 271 275
271 276 268 271 277 274 271 271 267 266 265 265 264 266 268 263 262 265 266 268 266 263 263 263 262 260 260 260 270 271 260 261 258 261 264 266 268 272 276 275 275 278 279 278 277 276 275 277 277 278 274 265 257 263
277 282 292 299 300 291 278 266 272 269 267 268 267 267 263 263 268 259 264 266 269 272 274 275 276 275 276 277 278 277 276 276 280 284 287 286 286 285 285 285 283 285 287 287 283 281 280 280 279 279 279 278 277 276
270 269 266 265 267 267 267 268 267 269 270 271 273 272 272 273 274 275 275 275 276 278 281 278 276 275 274 274 267 265 263 263 261 261 260 262 262 263 264 265 264 264 264 264 265 265 264 264 263 264 264 264 265 266
257 257 255 255 255 252 254 251 251 252 250 252 249 251 253 253 251 252 253 253 252 254 256 258 261 261 263 263 266 268 272 273 275 276 276 277 279 280 280 280 280 280 280 280 279 280 280 281 281 281 280 280 280 281
250 253 249 250 246 246 245 248 253 253 256 258 260 262 265 268 268 269 270 272 274 275 277 284 288 296 303 311 331 353 355 360 361 363 366 370 373 374 377 346 342 338 334 328 320 317 315 314 313 312 311 311 311 310
246 251 250 257 259 262 261 260 260 265 269 269 271 276 280 281 283 286 294 307 334 351 365 363 359 357 355 353 351 348 350 352 352 351 342 378 345 382 380 377 377 382 394 407 419 418 413 406 400 396 392 390 388 387
255 257 259 261 261 263 267 266 269 271 271 277 282 288 302 322 335 331 341 355 344 340 336 338 346 385 381 381 384 381 378 377 378 378 380 384 403 390 381 379 377 356 362 368 376 382 392 402 419 420 420 420 452 451

GFSWCAN_2pvu_pres_114.txt.gz
Presure
243 242 244 247 250 250 247 247 250 256 270 284 283 273 264 268 262 266 286 310 324 310 353 343 433 412 381 376 362 369 335 339 339 332 329 331 328 324 315 304 305 312 306 324 327 331 357 351 344 335 323 305 302 308
251 250 250 248 251 250 253 254 266 283 285 279 269 265 267 262 269 278 288 326 318 319 338 333 347 346 384 379 353 345 344 338 333 332 334 327 311 303 304 302 309 317 327 355 401 401 317 321 325 318 311 309 301 323
265 263 260 258 261 265 277 282 279 278 272 265 264 267 263 269 256 281 306 317 313 329 335 331 335 331 344 344 338 337 342 344 333 329 319 310 305 299 303 298 299 311 322 349 382 318 311 306 309 305 304 298 305 306
288 289 280 274 269 263 272 275 274 267 259 265 268 267 270 267 276 285 331 311 318 340 321 334 326 328 333 345 348 344 337 344 321 311 306 301 298 304 305 303 296 298 311 329 327 318 314 307 298 297 296 318 329 310
284 286 284 284 280 276 270 268 268 268 268 268 269 272 276 265 267 300 317 304 324 325 324 324 306 304 319 371 310 305 330 359 296 294 295 300 298 296 303 288 292 299 299 305 296 303 317 314 313 265 296 303 309 324
303 298 292 285 280 279 278 276 276 275 272 276 280 281 236 272 289 342 306 317 335 313 328 308 306 304 314 410 407 313 360 356 335 293 282 298 296 294 304 294 302 300 291 298 296 290 299 300 303 321 315 318 301 329
412 496 374 326 314 307 299 293 290 286 283 284 284 272 295 294 312 316 302 302 308 310 327 313 313 342 351 311 322 283 309 353 297 298 298 292 296 304 291 273 294 290 293 292 302 297 278 310 296 297 297 304 313 320
345 363 382 475 415 364 331 317 306 299 295 296 263 301 312 309 334 300 309 293 310 313 322 346 334 330 334 325 316 271 331 344 314 306 297 295 287 297 277 273 304 277 298 300 270 291 293 290 281 288 296 299 307 304
333 341 360 389 461 413 387 342 343 320 312 312 310 317 319 353 303 298 297 297 303 306 333 319 312 320 286 310 316 319 297 333 290 310 287 278 278 272 281 282 287 275 268 269 273 271 278 290 298 301 297 318 302 292
327 339 389 473 455 426 385 373 339 334 336 333 339 343 361 292 295 298 299 292 303 315 320 302 307 307 282 299 297 277 269 273 275 277 270 265 280 270 267 271 273 278 285 285 284 282 290 282 286 300 296 296 299 300
349 387 452 454 435 414 384 368 362 355 351 361 375 348 289 292 293 287 298 288 308 340 309 301 295 295 294 283 276 273 265 271 284 262 282 283 286 279 282 287 283 282 279 279 276 276 279 283 284 287 290 290 290 291
391 439 431 418 404 390 377 370 365 363 367 362 296 286 288 291 290 295 280 295 321 331 301 298 303 296 278 274 270 275 291 283 276 273 282 275 281 282 277 274 276 274 277 276 275 275 279 281 280 282 287 278 284 285
414 406 391 382 373 361 364 355 349 349 136 292 284 287 288 288 291 276 285 297 319 305 310 296 292 267 280 273 270 274 279 276 273 278 273 272 274 275 276 279 273 273 276 276 275 275 273 275 278 277 277 285 279 276
360 358 359 355 346 341 337 338 332 311 272 288 278 285 274 284 283 276 296 317 329 309 303 288 254 286 265 269 274 251 266 259 259 254 255 255 262 262 260 265 266 261 267 272 272 226 223 273 275 277 280 282 281 283
340 339 335 332 332 333 327 317 303 291 286 274 281 272 279 287 282 280 293 320 304 303 277 255 269 269 271 260 261 258 261 262 268 260 277 272 269 273 269 270 272 274 278 278 270 268 266 273 278 277 279 279 277 276
333 335 333 329 321 313 309 303 296 287 274 271 277 277 281 263 280 281 278 291 280 290 278 278 207 266 275 267 272 280 273 269 217 260 260 260 260 260 256 257 264 270 268 270 272 273 275 282 283 281 279 277 281 286
332 331 326 316 310 306 301 299 290 283 272 270 276 280 280 299 284 279 271 294 295 281 281 286 285 276 212 259 260 263 246 242 144 252 121 137 268 266 116 263 130 252 273 270 273 285 287 271 277 280 270 280 271 279
324 315 314 307 303 303 299 296 294 286 276 270 273 279 283 296 302 277 265 262 269 267 267 264 255 251 254 258 258 259 256 257 258 261 261 262 124 125 113 238 330 284 255 155 183 169 287 356 358 320 172 182 189 279
306 307 304 303 300 296 303 303 289 281 282 268 262 272 276 281 304 297 278 271 268 268 262 260 261 258 259 260 254 257 256 258 265 262 157 269 181 127 126 292 327 331 335 334 333 328 322 316 325 331 344 343 341 289
307 300 296 295 292 303 304 300 293 280 288 285 272 265 260 266 274 295 294 281 274 266 265 265 264 260 258 258 259 259 261 267 271 273 313 283 311 295 293 257 286 277 291 238 313 325 342 351 355 327 330 335 326 328
362 348 332 311 303 300 296 286 285 278 270 278 262 257 244 250 259 288 291 290 269 266 265 266 265 262 274 260 267 268 274 327 315 301 311 287 287 270 283 267 277 277 278 283 286 295 329 368 390 374 312 320 319 307
345 362 371 355 337 331 340 344 349 350 356 353 349 290 235 248 251 265 246 293 286 282 275 282 260 260 265 286 319 305 292 291 314 282 279 270 266 256 271 263 264 271 264 261 263 267 289 306 337 331 319 318 319 321
335 330 330 342 345 338 331 329 326 328 326 328 327 326 324 248 249 250 250 248 256 261 265 306 330 313 302 294 280 283 301 288 268 259 253 262 270 263 261 263 262 260 267 263 271 271 272 275 285 291 295 297 296 297
311 338 336 335 333 328 328 324 319 315 314 314 318 323 323 264 260 256 322 314 315 305 292 280 273 275 281 282 292 275 264 261 254 256 258 259 260 260 260 263 262 259 263 266 275 268 256 259 256 267 274 286 288 286
275 277 279 279 283 284 287 289 292 297 299 302 304 306 306 302 296 289 283 281 283 286 286 285 288 281 289 290 262 262 259 253 257 265 263 262 255 260 264 262 266 273 274 268 264 268 277 276 277 272 262 264 264 264
268 267 269 273 269 268 269 270 269 269 270 271 268 268 274 275 273 273 267 267 266 264 263 265 267 266 265 262 258 257 256 262 265 263 263 265 264 261 258 262 259 253 260 264 268 276 273 272 272 266 265 264 262 262
268 271 270 267 267 266 265 264 257 257 260 266 259 255 258 261 260 259 264 264 265 264 262 261 263 263 261 257 255 256 256 262 263 264 269 274 269 272 266 263 270 276 281 284 285 286 285 286 285 284 285 287 282 278
298 292 266 267 267 265 266 267 266 264 263 266 267 268 268 266 266 265 263 264 264 266 268 269 271 274 275 276 278 280 281 284 286 287 288 288 288 289 289 291 291 287 284 282 282 282 281 281 282 282 282 282 282 282
271 270 271 272 271 271 270 270 268 266 267 264 263 263 260 254 255 254 253 256 256 257 256 256 254 257 259 257 259 257 257 258 257 261 261 262 262 264 266 267 267 268 269 270 271 271 271 271 269 269 269 269 270 270
254 257 255 254 252 249 239 246 244 247 248 248 249 252 253 251 249 252 253 257 260 261 264 265 267 269 272 273 275 276 278 280 280 284 285 287 289 293 293 314 321 323 324 323 302 302 301 302 302 302 302 301 300 299
249 249 244 248 249 246 249 246 246 253 257 256 256 256 260 267 268 271 273 280 287 292 304 320 332 342 345 346 363 364 361 360 357 356 356 357 354 355 354 354 353 354 356 356 356 356 356 358 371 374 387 410 411 408
252 252 252 251 244 258 254 258 259 259 261 265 267 270 273 275 283 292 306 320 312 305 306 351 351 352 350 350 389 387 388 385 385 384 383 385 384 382 378 376 376 378 380 381 384 412 464 382 377 376 373 367 375 393
253 254 253 253 255 259 260 259 265 266 267 270 274 281 290 304 321 310 297 332 353 343 335 330 367 360 351 366 373 370 369 370 369 369 366 381 381 434 437 455 460 458 455 453 452 452 453 454 454 454 455 365 344 349

GFSWCAN_2pvu_pres_117.txt.gz
Presure
260 264 258 254 252 253 243 237 240 244 243 238 242 248 245 250 258 282 280 270 273 282 291 334 325 341 349 407 399 382 372 344 336 328 333 325 316 308 317 307 313 309 320 334 353 342 324 350 366 345 319 321 319 311
247 242 240 241 242 239 240 242 239 235 240 247 244 245 251 259 282 278 268 271 276 284 295 331 333 331 342 348 403 387 345 342 331 332 327 316 306 313 304 312 306 324 338 370 409 352 325 328 340 314 307 299 308 316
246 242 241 242 240 239 238 243 248 244 243 250 251 252 264 283 278 269 261 268 280 278 309 312 329 336 323 344 340 349 352 337 336 330 315 304 308 310 301 304 313 323 337 327 310 309 310 313 317 304 301 317 303 306
256 254 252 253 249 248 249 248 249 252 252 254 261 279 256 271 271 265 266 272 282 289 336 319 319 329 307 331 344 338 338 338 341 320 309 301 310 306 297 295 303 311 298 301 299 300 292 299 296 297 299 296 302 311
271 266 264 262 259 257 257 259 263 274 281 280 258 258 276 271 268 263 266 280 279 289 318 317 327 323 305 329 341 347 342 342 329 315 308 310 305 300 294 298 292 295 306 300 304 295 294 292 286 288 293 289 290 297
291 296 294 293 291 288 289 258 258 262 263 267 275 272 269 270 270 269 281 282 288 334 305 303 337 314 305 334 405 306 354 307 327 306 311 301 299 276 294 292 297 289 299 300 295 301 288 300 282 306 317 293 294 301
294 292 288 284 281 279 278 277 275 273 269 263 264 269 272 275 275 284 272 280 302 314 298 322 332 348 367 425 406 386 326 303 307 295 301 302 272 293 291 288 274 292 286 277 291 289 278 288 298 294 293 302 309 309
352 311 300 294 290 284 281 277 277 275 276 277 277 279 283 284 282 283 293 295 328 301 311 326 335 296 370 365 322 275 300 299 301 291 293 290 291 275 287 265 265 291 263 271 293 285 257 292 282 284 288 294 296 301
374 389 402 409 389 321 308 299 296 294 293 292 292 293 297 293 288 300 297 329 301 290 314 313 341 343 306 280 325 349 330 329 306 304 295 290 278 267 274 269 271 282 274 287 267 277 280 280 288 281 285 293 287 291
345 348 352 359 371 378 388 462 420 364 326 321 317 314 306 301 305 312 334 303 294 291 307 333 311 272 268 313 332 338 343 354 314 307 278 283 272 272 278 283 278 277 267 268 267 270 274 272 281 283 293 298 294 298
339 324 326 331 331 328 333 339 355 404 376 357 332 334 323 317 331 356 302 287 297 293 304 326 297 279 277 312 287 285 290 280 279 278 273 279 281 269 269 268 266 272 275 284 284 286 276 282 280 283 287 292 294 298
382 386 379 325 324 327 335 359 351 398 366 353 346 334 320 329 362 294 287 285 288 297 318 322 286 280 300 300 292 300 268 276 281 285 268 276 279 279 279 280 283 280 274 277 275 276 276 278 277 283 284 286 287 287
393 383 365 321 326 413 451 420 388 371 358 348 345 342 341 367 288 284 290 300 287 309 331 303 285 281 307 289 275 262 281 284 295 273 284 290 285 278 273 273 275 276 275 275 276 277 278 277 276 279 282 282 286 281
327 334 361 394 451 427 404 383 370 358 351 350 353 358 318 281 280 292 296 291 292 319 332 300 298 295 264 270 276 275 274 282 284 283 269 268 267 270 272 275 276 276 276 275 275 277 280 279 278 280 281 276 277 280
433 432 427 413 398 383 370 360 352 349 344 355 331 284 275 282 287 295 294 294 300 319 309 300 278 256 264 267 267 271 272 261 260 263 259 258 259 265 269 272 274 276 279 281 281 280 277 275 273 276 278 281 286 283
383 378 370 365 360 352 348 347 349 350 324 294 279 277 278 285 265 292 280 292 312 311 304 287 269 283 264 270 273 272 260 257 266 270 268 269 269 268 265 260 253 256 264 256 259 262 262 265 268 271 272 277 282 287
347 344 345 340 338 339 344 334 317 304 281 278 276 205 289 294 300 282 275 282 337 297 286 285 225 266 273 274 261 263 279 277 269 264 259 256 256 256 197 264 272 265 270 271 294 339 349 360 366 314 303 275 289 277
334 335 337 340 340 329 312 308 295 282 276 274 282 285 291 296 284 278 279 283 311 284 285 287 277 273 267 271 276 269 260 261 258 140 162 261 243 259 124 247 117 253 319 143 336 337 320 339 340 328 267 347 356 265
329 326 324 316 314 308 305 296 282 276 277 280 283 293 294 300 282 272 278 274 290 288 289 284 276 277 271 264 256 254 256 263 263 255 265 264 265 188 122 125 127 205 296 283 281 156 265 306 318 329 332 339 153 320
321 314 310 307 305 305 291 283 284 279 277 274 275 282 283 284 303 271 274 246 270 267 266 262 259 259 264 261 261 263 267 252 261 271 271 274 282 172 264 286 243 279 266 275 275 258 261 287 292 326 378 382 358 339
316 312 302 301 300 297 293 286 287 285 278 272 252 267 269 272 278 293 289 270 268 267 269 268 265 262 265 264 263 263 255 272 267 283 329 306 301 300 290 264 253 260 270 271 271 266 257 273 275 286 334 413 332 332
292 296 301 302 299 297 301 295 292 290 288 290 260 248 257 269 267 276 293 294 285 279 279 275 271 262 264 274 274 271 270 290 317 294 286 306 283 272 269 266 259 267 259 266 262 263 265 266 266 270 272 284 300 311
307 302 298 295 286 284 287 294 293 297 296 278 244 272 258 255 257 260 279 293 271 255 273 261 262 264 264 267 225 249 303 289 282 286 309 282 266 256 257 256 268 260 261 262 260 257 264 273 269 261 263 262 263 270
372 362 344 334 328 344 354 352 350 346 330 326 323 283 264 253 252 255 255 258 255 260 260 266 316 317 304 290 283 278 278 280 294 280 265 262 259 256 261 265 259 258 253 263 263 265 273 273 265 257 270 269 271 268
333 330 332 328 328 326 327 324 322 321 321 322 322 323 323 316 291 270 261 264 313 296 286 281 281 282 287 283 285 287 293 296 270 266 263 257 255 262 265 266 265 262 254 258 266 263 264 261 261 263 263 270 266 273
284 285 287 289 289 290 291 291 293 294 295 296 299 300 300 298 293 288 283 281 279 277 274 273 271 271 272 273 272 277 282 272 266 264 263 262 262 265 269 266 258 262 265 263 259 266 264 263 267 273 278 282 285 283
272 270 270 272 272 271 274 272 271 272 269 266 267 268 268 268 263 264 262 262 263 263 264 264 264 264 263 263 264 265 265 266 264 263 263 263 264 265 266 270 270 271 273 275 280 276 276 283 286 290 291 289 286 285
272 272 272 270 269 268 266 266 265 264 264 267 267 268 265 265 266 267 268 267 266 266 266 267 269 271 273 274 274 277 278 279 281 281 282 283 287 288 290 290 289 288 288 287 286 283 278 274 271 269 268 267 268 268
290 286 287 287 283 281 278 274 269 268 262 258 256 255 253 252 246 249 250 251 253 257 257 256 254 263 264 266 270 272 274 275 277 280 282 283 285 285 287 288 290 291 292 293 294 294 294 294 295 295 295 295 296 297
263 262 260 255 253 248 238 246 244 246 249 248 246 251 250 249 254 250 252 255 260 264 267 272 276 281 305 314 319 325 327 334 335 333 344 354 352 358 353 360 360 361 361 360 359 359 359 362 364 365 365 365 364 364
250 251 248 246 248 251 241 255 248 248 254 255 257 255 257 259 262 267 272 279 287 308 323 309 303 301 317 343 356 355 353 357 366 370 377 381 385 386 385 385 386 386 387 386 387 387 386 385 385 384 385 387 390 394
249 251 253 252 254 241 250 251 250 256 259 259 264 263 266 268 271 276 287 304 310 299 303 358 349 340 333 325 367 361 361 359 368 368 368 376 375 371 371 371 373 372 371 371 454 461 461 459 456 454 454 455 456 454
253 253 254 254 252 252 252 253 257 258 259 263 265 262 270 276 283 290 307 304 311 355 341 324 318 352 356 352 354 372 385 373 362 357 451 443 436 431 425 419 415 412 408 405 409 417 423 429 434 436 436 436 436 436

GFSWCAN_2pvu_pres_120.txt.gz
Presure
274 264 261 252 251 250 256 250 252 258 256 263 265 260 254 246 238 245 242 245 252 264 290 282 277 293 331 344 331 418 404 367 352 336 324 316 319 321 321 314 313 322 350 364 356 329 346 367 365 335 320 315 318 320
267 264 267 266 273 259 255 259 254 263 253 254 252 245 240 241 240 241 241 246 259 282 276 272 282 300 330 331 318 414 351 363 344 329 318 321 322 315 311 312 317 333 335 317 355 328 353 316 320 315 306 306 304 304
248 252 268 268 262 261 259 262 260 262 257 246 235 238 243 236 243 243 250 256 275 262 271 270 291 304 329 331 309 351 360 351 336 322 312 307 317 300 308 313 312 315 306 301 305 329 311 304 301 298 301 312 306 308
245 244 246 245 246 246 249 245 243 239 242 241 238 236 241 246 245 252 255 277 254 274 270 280 292 330 315 333 303 324 352 346 325 321 306 311 307 306 311 300 296 299 295 289 295 314 298 298 296 298 304 307 298 307
255 253 251 248 244 241 240 239 239 236 234 238 241 243 247 248 252 254 274 253 275 267 273 282 297 326 306 342 302 333 352 348 324 319 316 309 298 302 297 305 287 289 298 290 279 311 295 277 281 290 293 280 277 284
263 261 253 251 252 249 246 244 243 243 243 243 246 249 253 254 259 277 262 275 262 268 277 291 302 319 326 347 312 347 319 307 329 318 306 303 304 299 284 292 286 275 283 281 286 287 275 270 279 301 286 284 284 292
274 270 265 260 257 255 253 251 252 252 252 252 254 258 261 265 287 265 277 263 270 275 287 300 323 313 335 324 432 390 331 364 326 304 316 292 299 289 292 292 305 304 302 288 284 279 282 289 298 280 293 291 288 308
284 280 281 268 268 267 266 263 262 262 264 264 263 274 286 267 271 270 268 273 278 283 292 307 316 315 332 420 368 331 328 313 327 306 300 289 291 281 279 281 284 290 274 294 290 296 274 279 288 284 286 285 285 296
295 287 281 282 283 287 287 263 262 286 286 284 270 269 275 267 260 275 280 283 279 290 302 321 304 325 353 342 328 271 286 309 293 290 288 289 277 263 262 267 273 302 275 268 275 282 277 272 277 275 285 292 288 299
391 335 309 299 287 279 276 280 279 278 279 281 279 271 271 270 282 285 290 293 303 299 318 307 297 329 319 320 345 360 327 320 308 278 290 298 271 273 267 277 271 281 259 278 271 271 279 280 274 292 295 300 295 291
379 382 384 388 353 322 303 295 288 287 289 288 281 278 281 288 296 304 308 313 316 317 319 295 311 307 296 308 332 338 343 329 315 287 290 278 269 279 266 285 277 284 278 268 271 271 269 270 280 286 284 287 289 293
353 360 369 369 372 378 386 388 390 374 359 347 339 336 330 330 333 336 339 312 331 350 301 288 323 293 294 311 303 327 330 335 296 289 277 278 276 270 279 276 269 270 277 274 271 283 284 283 283 280 279 282 282 282
437 374 338 348 355 352 354 357 365 361 358 361 375 398 377 369 381 372 318 329 355 303 284 296 324 290 283 283 309 289 281 292 304 275 271 277 282 276 269 267 272 272 275 277 277 277 277 279 280 281 282 284 283 285
424 424 330 324 326 328 327 325 321 320 320 323 330 376 375 378 354 311 333 341 299 295 284 310 320 290 285 309 308 289 265 281 289 283 283 287 268 275 273 272 272 272 275 281 281 278 279 281 283 285 286 285 284 284
387 382 375 347 328 316 316 319 319 321 338 337 379 370 360 275 318 329 320 299 299 278 297 330 301 292 283 292 280 292 287 278 282 275 275 273 277 277 275 274 275 276 278 278 276 273 270 270 270 194 272 274 279 280
382 380 376 371 358 325 321 326 379 389 376 370 367 327 326 320 314 303 293 289 284 284 325 322 289 282 290 284 273 258 277 276 267 272 267 266 264 261 268 271 269 262 261 262 263 261 263 263 300 319 292 278 278 281
339 337 347 356 435 424 406 391 378 368 372 340 320 312 309 296 298 287 299 287 285 304 325 308 292 280 278 260 263 278 266 270 257 258 262 269 270 268 262 255 256 262 274 271 280 304 334 328 347 336 339 348 326 332
418 412 405 399 391 379 370 365 358 343 317 307 299 296 296 293 289 293 282 288 297 314 321 304 298 281 276 279 280 280 259 265 281 271 267 262 225 127 265 243 120 118 244 289 320 303 293 293 297 297 303 319 325 336
365 364 361 360 359 356 345 325 313 309 302 294 260 300 285 294 288 282 279 284 303 333 316 307 295 274 274 280 274 271 275 261 258 189 120 198 193 265 172 126 128 126 251 323 260 272 283 276 214 253 231 284 326 363
340 339 340 340 326 309 308 301 301 294 289 282 257 290 289 288 278 277 285 285 339 329 299 289 289 286 280 277 276 261 257 257 257 262 251 268 271 268 306 235 126 331 313 282 276 272 177 267 265 276 267 261 293 337
329 321 316 303 298 301 291 286 276 278 280 284 283 277 292 289 276 276 281 273 278 287 289 271 291 285 260 257 261 251 257 260 269 270 292 267 292 321 292 298 305 291 275 267 270 261 273 262 268 271 277 278 276 276
310 305 293 288 289 287 283 282 278 274 275 277 282 285 279 287 297 288 274 279 280 279 272 267 262 261 260 260 267 267 268 241 284 267 289 326 302 285 300 298 275 272 268 264 261 264 261 264 257 268 271 273 270 265
300 299 297 289 286 285 285 286 275 277 270 264 268 278 273 273 278 285 296 301 293 283 277 274 274 275 276 278 273 263 237 283 304 308 296 288 285 303 308 282 269 267 260 262 268 259 261 263 262 266 274 273 266 264
306 304 303 302 298 296 289 292 292 290 291 286 276 264 251 268 258 259 263 281 269 258 264 257 252 258 270 287 300 304 294 284 280 281 279 288 302 304 291 269 265 262 261 269 269 267 254 271 266 265 266 268 266 263
305 298 293 289 291 291 294 299 300 279 298 296 293 262 290 258 237 250 255 256 252 250 265 310 296 286 282 280 283 285 284 286 288 292 293 295 286 276 271 265 264 263 267 270 272 273 272 261 264 270 265 262 265 264
357 349 337 349 345 338 335 337 340 338 336 332 329 327 325 316 306 287 272 274 289 285 281 278 275 272 271 270 270 270 270 272 273 274 279 285 291 273 272 272 270 268 268 268 267 269 265 267 271 273 274 272 274 279
293 299 295 293 292 291 290 290 290 288 288 288 287 285 283 281 278 276 273 271 266 265 265 265 266 267 269 270 271 273 275 275 277 277 276 276 276 277 277 275 275 277 279 280 282 282 283 285 286 288 291 294 296 295
271 273 274 273 276 277 274 272 267 267 268 269 269 264 269 267 265 262 262 263 262 261 261 261 262 263 262 262 263 262 262 265 264 260 257 260 266 265 266 266 265 267 266 269 268 267 267 267 267 281 282 281 276 276
266 268 271 272 273 273 271 270 268 265 261 261 258 253 252 255 253 248 247 246 250 256 254 257 259 263 268 270 272 300 305 310 314 315 321 323 326 325 324 324 329 333 334 336 332 331 341 368 370 369 368 368 370 370
282 273 267 261 257 252 251 252 246 249 254 258 257 255 239 240 246 254 257 258 264 267 270 275 285 302 311 310 306 303 315 325 326 357 359 358 358 368 374 374 376 377 377 378 379 383 387 387 386 385 386 387 388 389
252 249 252 252 253 245 244 254 251 249 249 249 256 257 255 259 262 264 266 266 268 276 285 295 305 304 347 356 343 331 325 346 349 365 364 369 374 382 399 391 385 376 374 395 446 442 441 443 449 464 465 465 464 461
254 251 250 249 252 258 245 241 256 254 255 256 256 259 262 264 265 264 273 274 279 279 297 310 352 354 328 319 344 353 360 361 369 378 366 363 362 361 355 356 427 429 425 422 418 414 411 409 408 410 417 425 435 441
255 253 249 252 254 254 252 254 255 254 256 258 258 263 260 260 264 273 275 281 288 307 317 359 345 322 330 348 359 366 359 366 359 350 355 451 440 423 406 396 401 407 405 402 399 396 393 391 390 389 389 388 386 386